Theta_e
323 321 321 322 322 324 326 327 328 348 352 353 353 352 351 349 350 345 344 343 342 343 346 345 342 345 345 343 343 343 343 343 342 341 344 343 343 344 344 344 344 343 341 342
320 321 320 321 322 325 326 327 336 350 348 350 352 351 348 348 350 347 345 344 342 341 344 344 343 345 345 345 343 342 342 342 341 339 341 342 343 345 344 344 344 344 340 341
321 322 322 324 324 325 323 325 327 349 347 346 350 351 349 348 347 349 348 345 343 341 344 345 345 346 345 344 343 343 343 342 341 337 342 344 345 346 343 346 344 341 343 342
321 322 324 324 325 322 323 322 328 349 344 351 345 351 347 346 344 344 348 349 344 342 342 343 345 345 345 343 343 343 345 344 344 339 343 343 343 345 344 345 345 346 345 340
321 321 322 323 323 322 323 322 325 345 338 343 348 344 342 344 345 344 348 348 345 343 341 343 344 343 343 342 342 341 342 344 344 344 337 344 345 345 346 344 345 344 345 341
320 321 319 320 321 321 322 324 327 329 332 342 340 342 343 349 346 346 348 346 344 344 342 342 344 343 342 344 343 341 342 344 344 344 338 343 347 346 347 345 345 346 346 344
320 322 320 320 320 319 321 322 327 338 339 340 335 344 340 343 347 347 347 346 345 344 344 342 342 343 343 342 343 342 342 343 344 342 338 341 345 346 346 346 346 345 344 343
320 322 321 320 319 319 318 319 325 333 335 336 338 343 344 339 345 348 347 346 346 345 345 344 344 342 344 343 342 342 344 343 343 341 340 338 345 345 345 345 346 345 344 344
319 322 323 324 321 319 321 323 321 323 324 328 344 343 342 338 333 338 341 342 342 345 347 345 345 343 343 343 341 343 345 345 344 343 341 339 344 344 344 344 344 345 346 345
319 322 320 323 323 320 320 320 324 322 331 332 346 347 343 344 336 334 336 335 338 341 346 348 345 346 345 343 343 344 345 345 345 345 343 340 342 344 344 345 347 345 344 345
316 316 318 322 321 320 321 325 323 321 323 331 345 343 340 338 332 330 331 332 338 341 343 345 346 347 347 346 345 346 346 346 346 345 344 341 341 345 344 344 346 344 344 346
316 311 317 324 319 318 317 320 323 326 330 330 334 340 332 329 327 328 328 330 335 338 341 343 345 347 347 347 347 346 347 347 347 345 341 341 341 342 344 342 342 345 345 346
317 314 319 323 320 319 317 318 317 317 323 332 334 336 332 329 326 326 326 328 334 335 337 340 343 344 346 347 346 346 347 347 344 344 343 340 342 342 340 340 342 340 342 345
316 312 317 323 323 320 320 318 318 316 319 326 328 337 333 328 324 322 323 326 330 335 337 338 341 341 344 346 345 345 345 346 342 340 343 341 341 343 342 341 342 344 343 345
314 318 318 320 319 319 318 319 322 320 321 329 332 334 332 326 322 322 323 324 324 329 332 335 338 340 342 343 345 345 344 341 341 339 340 342 343 342 342 343 343 343 345 341
312 319 318 320 325 320 320 320 319 331 332 331 329 328 323 324 323 322 323 322 321 323 324 326 330 337 339 342 342 343 343 337 337 339 341 338 338 337 340 339 341 342 342 343
315 314 316 322 318 326 326 320 319 327 331 330 333 327 322 321 321 321 322 322 321 321 322 323 323 324 327 335 338 340 340 340 339 338 339 341 341 340 340 339 340 340 340 339
311 314 312 317 318 325 323 320 322 328 328 326 325 323 322 321 321 321 321 321 321 321 320 320 321 322 323 324 323 326 331 337 338 340 340 340 340 340 338 337 338 340 339 337
309 309 314 315 317 318 320 318 319 324 327 324 324 323 322 322 321 320 320 319 320 321 321 321 322 322 323 324 324 323 322 323 325 328 332 334 337 340 339 338 339 338 339 338
309 307 312 315 320 318 316 317 317 319 324 325 324 322 321 321 320 317 319 319 319 320 320 320 321 321 321 322 324 323 323 322 320 320 320 319 322 325 329 333 332 335 336 339
312 309 311 316 317 318 318 318 318 322 318 324 324 322 321 320 319 320 320 318 318 318 319 319 319 319 319 318 319 320 320 320 319 318 318 317 316 315 316 317 317 322 330 329
316 311 308 311 314 317 319 318 318 315 318 321 323 322 321 319 319 318 318 317 317 317 317 317 317 316 315 313 312 312 313 313 313 312 311 311 311 311 311 312 312 313 313 317
314 314 314 314 313 315 319 318 318 318 320 320 321 320 320 319 319 318 317 317 317 316 315 314 313 312 311 311 310 309 309 309 308 307 307 308 308 308 309 309 310 310 311 311
314 314 311 314 317 317 319 317 317 317 317 320 321 320 320 317 317 317 316 316 316 315 314 313 312 311 311 310 308 306 306 305 304 304 304 305 305 306 306 307 307 307 308 309
314 312 311 311 313 315 318 319 318 317 316 316 319 320 321 319 317 316 316 315 314 313 313 312 312 310 308 306 305 304 304 303 303 303 303 304 304 304 305 305 305 306 306 306
315 312 313 313 315 315 316 318 317 317 316 316 316 317 318 318 317 316 315 314 313 312 312 312 310 308 306 305 305 303 302 301 300 300 301 302 303 303 304 304 304 304 304 305
Wind_Speed
6 4 5 9 5 4 3 2 5 6 11 8 7 5 14 11 6 20 20 23 29 37 41 37 34 31 29 27 24 23 23 20 16 16 16 14 9 10 7 7 8 7 8 9
5 4 7 5 6 3 2 2 1 7 8 4 8 6 10 14 11 18 21 20 30 31 36 40 37 37 33 28 24 23 20 18 15 14 17 13 9 10 10 8 8 9 10 12
5 3 6 3 1 1 1 3 3 4 5 4 9 1 9 9 7 15 20 15 28 37 40 41 41 40 34 30 27 24 21 17 10 16 15 13 12 9 12 8 8 8 9 12
4 5 3 2 3 5 2 6 3 10 5 4 4 4 5 9 8 7 17 20 28 39 41 44 42 41 37 30 25 24 22 19 13 15 16 13 12 10 8 8 8 8 8 11
6 5 4 5 7 6 8 5 7 9 5 6 3 2 3 13 10 14 22 32 32 39 42 46 46 40 36 30 27 23 24 21 16 14 16 15 12 10 7 10 9 10 9 11
6 4 6 8 6 9 5 2 6 5 4 1 7 6 4 7 17 15 20 28 37 39 42 45 45 38 33 33 29 24 24 23 20 18 19 20 12 13 9 7 10 10 10 12
5 4 5 6 2 2 4 6 1 3 1 5 6 4 2 8 6 16 19 21 30 35 42 42 41 40 34 36 33 27 24 24 23 21 20 23 17 14 10 10 8 12 10 14
3 2 7 4 9 7 7 9 5 6 5 4 5 5 3 8 10 16 16 15 18 19 33 40 42 45 41 34 37 30 25 24 24 23 22 24 21 18 15 12 10 9 9 12
5 5 3 2 4 9 4 3 7 6 3 4 1 2 1 8 12 16 14 14 11 13 17 32 33 37 38 36 37 33 27 24 23 21 23 25 23 20 16 13 13 15 13 12
3 1 2 4 1 4 7 6 4 3 4 3 3 1 4 2 4 5 9 10 8 8 11 18 27 31 33 37 37 34 31 28 23 20 22 25 25 22 16 15 14 16 15 15
2 2 6 1 5 1 3 2 6 5 4 5 4 5 1 5 5 5 6 7 5 6 10 16 22 24 27 32 37 29 31 28 27 22 20 22 26 24 20 18 16 16 13 14
2 4 1 1 6 2 6 3 3 5 3 3 3 4 2 5 10 12 9 8 7 5 7 12 16 22 23 24 26 28 30 28 20 20 19 21 22 26 25 20 18 19 17 16
1 3 3 5 6 8 8 5 2 3 3 6 6 4 6 8 8 9 10 10 11 8 6 10 13 14 18 22 20 22 31 35 29 20 19 22 20 19 18 19 18 19 20 17
4 3 5 5 4 3 3 5 3 3 4 5 5 6 9 8 8 10 9 7 10 11 8 8 11 13 13 13 15 19 21 21 22 24 18 21 19 19 20 21 21 19 21 21
4 3 1 1 6 6 5 6 10 4 4 4 6 9 11 8 8 14 12 12 11 14 11 11 13 13 17 16 14 10 14 14 15 12 19 23 12 8 9 20 23 22 23 23
4 2 1 5 3 8 8 13 13 7 5 8 10 0 7 16 16 15 13 14 15 15 14 14 13 14 15 14 16 16 14 14 16 11 7 15 23 23 16 11 12 21 23 19
3 3 3 1 5 6 6 5 6 2 5 6 5 6 19 11 15 17 16 15 18 19 18 17 18 17 15 14 13 12 12 10 9 8 8 10 14 16 19 20 15 17 20 17
3 3 3 2 3 2 5 5 4 9 5 3 7 16 16 18 17 18 17 18 20 20 19 19 18 18 18 18 18 17 15 13 13 15 14 12 11 14 20 20 19 21 22 21
4 5 3 3 1 3 3 2 4 3 4 8 13 13 16 21 19 13 17 20 22 23 20 19 16 16 16 16 15 15 14 12 10 8 7 7 9 13 14 11 17 15 20 18
5 7 4 2 3 4 4 6 16 5 3 14 24 23 22 25 5 5 25 23 21 19 18 18 15 13 11 12 10 7 8 6 5 5 4 4 4 6 10 14 11 12 12 18
4 4 3 1 2 4 5 8 11 6 4 14 25 33 31 16 8 32 31 26 20 18 18 16 13 10 8 7 7 6 4 3 3 3 5 6 6 7 8 9 10 10 13 13
3 4 2 2 3 3 4 6 1 3 2 9 23 30 33 16 21 38 34 30 25 21 18 14 12 9 7 6 7 7 7 8 8 9 10 10 10 11 11 11 11 12 12 13
1 5 4 5 5 6 1 5 6 2 3 11 25 27 32 24 39 39 35 30 25 20 18 14 10 9 7 5 5 6 7 7 7 8 8 7 8 9 9 10 11 12 13 13
2 3 3 4 3 5 6 7 6 6 5 9 21 22 22 27 36 37 32 28 24 19 16 12 8 6 6 8 8 7 7 6 6 7 8 8 7 7 8 8 8 8 10 12
5 6 4 2 4 2 9 8 9 8 9 11 14 17 22 28 36 33 30 26 22 19 15 11 6 6 6 5 5 5 6 6 5 5 5 6 6 6 6 7 7 7 9 11
6 6 4 5 9 8 7 14 12 13 15 15 18 22 25 29 32 31 28 24 21 19 15 10 7 5 3 3 4 5 4 4 4 4 4 5 5 5 6 7 6 7 9 10
Wind_Direction
170 122 197 205 174 147 92 46 303 160 193 148 218 162 177 198 200 199 195 178 181 185 196 199 195 190 185 182 181 184 185 182 182 191 179 186 203 203 208 228 215 208 202 186
38 208 221 188 170 160 150 139 272 72 102 146 192 145 182 203 210 197 203 188 173 177 187 196 194 189 185 182 183 186 184 189 203 211 196 200 207 212 220 211 221 208 206 212
152 229 158 154 104 134 155 173 233 140 116 89 123 208 202 211 209 207 209 213 178 179 184 189 188 187 185 187 186 185 187 187 183 191 191 196 202 211 199 212 204 196 204 214
226 232 131 180 250 132 303 211 173 140 138 188 193 222 191 181 211 216 226 219 191 187 192 189 189 188 189 193 191 189 190 188 186 196 203 204 205 204 206 201 200 202 200 199
240 179 177 193 213 145 232 178 180 184 151 112 193 86 269 159 206 208 208 205 194 187 190 189 188 196 193 196 196 195 197 195 194 202 208 209 214 217 230 225 214 201 203 196
230 250 164 207 217 177 243 247 49 59 107 116 200 162 257 192 209 198 203 192 191 188 193 194 189 191 198 200 201 200 203 201 200 206 212 210 221 208 229 225 205 204 204 201
336 264 231 174 223 38 106 84 330 22 38 203 170 122 167 308 217 189 183 178 185 187 194 189 193 191 207 207 205 205 208 209 209 213 216 213 219 215 220 226 232 224 213 200
164 296 176 176 180 184 180 158 156 187 172 231 119 218 282 7 41 148 146 154 175 189 194 198 201 200 202 207 207 208 209 213 214 217 220 216 220 222 225 233 240 226 224 203
158 272 319 180 160 146 196 153 185 106 16 95 128 335 131 55 32 67 96 119 129 170 185 204 207 207 209 207 212 212 215 215 218 222 222 221 222 226 232 246 247 231 232 218
216 274 283 290 95 63 152 164 70 4 171 144 358 241 244 136 58 57 77 85 97 157 185 196 203 209 216 208 216 215 219 222 219 226 229 229 228 231 235 239 250 230 234 221
100 102 293 28 26 3 42 75 56 120 118 147 140 260 342 168 143 125 90 98 98 134 168 175 190 194 210 212 210 223 224 222 226 227 233 233 231 235 238 239 234 229 231 226
343 130 80 95 305 241 105 51 109 131 213 89 125 246 99 124 134 144 141 134 135 160 179 186 178 186 198 216 207 230 231 230 221 218 234 233 236 237 240 237 241 238 241 245
83 25 36 8 357 7 56 336 4 108 83 179 137 242 148 139 137 147 151 151 145 136 155 178 188 190 200 190 204 220 223 219 234 220 237 227 228 230 238 243 244 246 246 247
92 70 138 148 149 176 19 339 321 115 110 167 192 172 192 181 158 149 142 150 145 141 144 146 170 190 172 193 210 209 219 218 235 225 223 222 223 231 239 245 246 246 247 248
83 98 99 176 128 62 34 15 350 227 190 141 188 176 208 172 155 157 141 132 127 120 133 142 138 164 177 178 166 187 179 182 204 210 239 226 219 239 257 257 253 243 244 247
4 105 78 21 246 68 8 355 353 6 84 79 108 256 140 160 155 152 146 130 117 116 119 120 132 141 141 157 178 183 186 182 196 220 227 210 234 257 256 300 276 258 248 249
58 98 67 329 353 113 340 319 337 336 39 119 170 197 153 148 151 158 156 146 134 126 120 118 114 116 124 140 150 156 168 183 196 206 213 225 233 240 243 271 266 257 256 267
99 73 54 171 43 137 241 207 184 105 44 30 97 134 146 150 155 158 162 155 142 130 126 127 126 123 120 118 124 136 142 150 169 182 192 200 208 221 235 259 253 239 254 268
50 110 68 119 109 296 99 281 265 115 357 122 121 123 127 139 140 149 170 157 145 140 141 137 132 129 131 136 132 130 128 133 142 143 163 185 211 223 232 247 238 253 244 250
58 72 109 113 122 194 244 310 330 319 236 168 148 148 148 146 150 205 166 160 154 153 152 146 143 139 135 130 149 155 137 133 132 138 159 174 207 236 237 240 254 255 265 271
9 4 110 124 149 296 275 297 335 168 253 177 173 162 164 173 200 167 170 168 165 160 158 161 163 169 169 173 195 225 241 250 257 257 256 257 254 256 260 265 271 266 263 261
161 129 190 89 92 263 330 330 334 241 354 182 187 178 171 174 166 163 167 167 170 170 174 185 195 196 201 220 241 243 246 256 270 276 280 278 272 267 266 264 263 270 271 266
301 177 183 160 213 243 17 123 124 59 21 192 181 179 179 173 169 171 172 174 177 184 190 197 206 206 212 238 260 260 260 264 271 279 279 270 269 275 273 266 264 264 264 263
270 168 119 78 254 205 166 149 151 153 123 138 185 180 191 177 177 175 175 175 179 187 194 199 207 224 257 271 282 288 288 288 285 280 276 275 267 263 274 283 283 277 275 275
202 143 159 270 282 260 211 205 185 178 165 156 170 189 198 194 182 182 182 185 190 191 192 195 212 243 245 254 282 293 301 308 311 298 281 274 271 270 268 267 271 281 292 295
189 184 154 211 209 205 209 205 205 191 188 187 181 182 189 192 191 193 196 198 196 194 196 208 237 235 237 257 273 287 286 295 308 310 294 279 274 273 275 280 283 289 285 288